Caldwell, NJ

1:36 AM EDT on May 26, 2017 (GMT -0400)
Essex County

Weather History for KCDW - September, 2012

Change the Weather History Date:

Sunday, September 23, 2012

  Actual Average Record
Temperature  
Mean Temperature 60 °F -  
Max Temperature 68 °F 72 °F 93 °F (1980)
Min Temperature 50 °F 49 °F 34 °F (1963)
Degree Days  
Heating Degree Days 6    
Growing Degree Days 10 (Base 50)    
Moisture  
Dew Point 46 °F    
Average Humidity 63    
Maximum Humidity 90    
Minimum Humidity 33    
Precipitation  
Precipitation 0.00 in - - ()
Sea Level Pressure  
Sea Level Pressure 30.05 in    
Wind  
Wind Speed 3 mph (NW)    
Max Wind Speed 10 mph    
Max Gust Speed 18 mph    
Visibility 10 miles    
Events      
Averages and records for this station are not official NWS values.
T = Trace of Precipitation, MM = Missing Value Source: NWS Daily Summary

Daily Weather History Graph

Daily Weather History Graph

Search for Another Location

Airport or City:

Trip Planner

Search our weather history database for the weather conditions in past years. The results will help you decide how hot, cold, wet, or windy it might be!

Date:

Astronomy

Sep. 23, 2012 Rise Set
Actual Time 6:46 AM EDT 6:51 PM EDT
Civil Twilight 6:18 AM EDT 7:19 PM EDT
Nautical Twilight 5:46 AM EDT 7:51 PM EDT
Astronomical Twilight 5:14 AM EDT 8:23 PM EDT
Moon 2:53 PM EDT (9/23) No Moon Set
Length of Visible Light 13h 00m
Length of Day
12h 05m
First Quarter, 60% of the Moon is Illuminated
Sep 23
First Quarter
Sep 29
Full
Oct 8
Last Quarter
Oct 15
New
Oct 21
First Quarter

Hourly Weather History & Observations

Time (EDT) Temp. Dew Point Humidity Pressure Visibility Wind Dir Wind Speed Gust Speed Precip Events Conditions
12:53 AM 64.0 °F 61.0 °F 90% 29.88 in 6.0 mi Calm Calm - N/A   Mostly Cloudy
1:53 AM 63.0 °F 60.1 °F 90% 29.90 in 7.0 mi Calm Calm - N/A   Mostly Cloudy
2:53 AM 63.0 °F 57.9 °F 84% 29.91 in 10.0 mi Calm Calm - N/A   Overcast
3:53 AM 59.0 °F 55.9 °F 90% 29.92 in 10.0 mi Calm Calm - N/A   Clear
4:53 AM 59.0 °F 53.1 °F 81% 29.96 in 10.0 mi WNW 3.5 mph - N/A   Scattered Clouds
5:53 AM 55.0 °F 48.0 °F 77% 30.00 in 10.0 mi NW 5.8 mph - N/A   Clear
6:53 AM 54.0 °F 46.0 °F 75% 30.03 in 10.0 mi NW 3.5 mph - N/A   Clear
7:53 AM 55.0 °F 44.1 °F 67% 30.05 in 10.0 mi NW 8.1 mph 17.3 mph N/A   Clear
8:53 AM 57.0 °F 44.1 °F 62% 30.07 in 10.0 mi NW 6.9 mph - N/A   Clear
9:53 AM 59.0 °F 43.0 °F 55% 30.09 in 10.0 mi NW 8.1 mph - N/A   Clear
10:53 AM 63.0 °F 41.0 °F 45% 30.09 in 10.0 mi NW 6.9 mph - N/A   Clear
11:53 AM 64.9 °F 41.0 °F 42% 30.08 in 10.0 mi NW 9.2 mph - N/A   Clear
12:53 PM 64.9 °F 39.0 °F 39% 30.08 in 10.0 mi NNW 9.2 mph 17.3 mph N/A   Clear
1:53 PM 66.9 °F 39.0 °F 36% 30.07 in 10.0 mi NNW 9.2 mph 18.4 mph N/A   Clear
2:53 PM 66.9 °F 39.0 °F 36% 30.06 in 10.0 mi WNW 10.4 mph 17.3 mph N/A   Partly Cloudy
3:53 PM 66.9 °F 39.9 °F 37% 30.07 in 10.0 mi NNW 10.4 mph - N/A   Scattered Clouds
4:53 PM 68.0 °F 37.9 °F 33% 30.07 in 10.0 mi Variable 5.8 mph - N/A   Clear
5:53 PM 66.0 °F 37.9 °F 36% 30.09 in 10.0 mi NW 4.6 mph - N/A   Clear
6:53 PM 60.1 °F 43.0 °F 53% 30.09 in 10.0 mi Calm Calm - N/A   Clear
7:53 PM 55.9 °F 45.0 °F 67% 30.11 in 10.0 mi Calm Calm - N/A   Clear
8:53 PM 54.0 °F 46.0 °F 75% 30.12 in 10.0 mi Calm Calm - N/A   Clear
9:53 PM 52.0 °F 46.0 °F 80% 30.14 in 10.0 mi Calm Calm - N/A   Mostly Cloudy
10:53 PM 51.1 °F 46.0 °F 83% 30.14 in 10.0 mi Calm Calm - N/A   Clear
11:53 PM 50.0 °F 45.0 °F 83% 30.14 in 10.0 mi Calm Calm - N/A   Clear